TimeCDT,TemperatureF,Dew PointF,Humidity,Sea Level PressureIn,VisibilityMPH,Wind Direction,Wind SpeedMPH,Gust SpeedMPH,PrecipitationIn,Events,Conditions,WindDirDegrees,DateUTC
12:19 AM,53.6,53.6,100,29.96,10.0,Calm,Calm,-,N/A,,Overcast,0,2013-09-15 05:19:00
12:53 AM,55.0,54.0,96,29.97,10.0,Calm,Calm,-,N/A,,Overcast,0,2013-09-15 05:53:00
1:17 AM,55.4,53.6,94,29.96,10.0,NNE,3.5,-,N/A,,Overcast,30,2013-09-15 06:17:00
1:53 AM,55.0,54.0,96,29.98,10.0,Calm,Calm,-,0.00,Rain,Light Rain,0,2013-09-15 06:53:00
2:30 AM,55.4,53.6,94,29.97,10.0,NNW,3.5,-,0.00,,Overcast,330,2013-09-15 07:30:00
2:53 AM,55.0,54.0,96,30.00,10.0,NNW,3.5,-,0.00,,Overcast,330,2013-09-15 07:53:00
3:53 AM,55.0,54.0,96,29.99,10.0,NNW,4.6,-,N/A,,Overcast,340,2013-09-15 08:53:00
4:53 AM,55.0,54.0,96,30.02,10.0,NNW,5.8,-,N/A,,Overcast,340,2013-09-15 09:53:00
5:53 AM,55.9,54.0,93,30.04,10.0,NNE,10.4,20.7,N/A,,Overcast,20,2013-09-15 10:53:00
6:06 AM,55.4,53.6,94,30.04,10.0,NNE,11.5,-,N/A,,Overcast,20,2013-09-15 11:06:00
6:53 AM,55.9,53.1,90,30.07,10.0,NNE,13.8,21.9,N/A,,Overcast,30,2013-09-15 11:53:00
7:53 AM,55.0,53.1,93,30.11,10.0,NNE,8.1,17.3,N/A,,Overcast,20,2013-09-15 12:53:00
8:09 AM,55.4,51.8,88,30.10,10.0,NNE,10.4,-,N/A,,Overcast,20,2013-09-15 13:09:00
8:53 AM,53.1,51.1,93,30.14,10.0,NNE,9.2,18.4,N/A,,Overcast,30,2013-09-15 13:53:00
9:53 AM,51.1,48.9,92,30.19,10.0,NNE,13.8,21.9,N/A,,Overcast,30,2013-09-15 14:53:00
10:53 AM,51.1,48.0,89,30.22,10.0,NNE,8.1,16.1,N/A,,Overcast,30,2013-09-15 15:53:00
11:37 AM,51.8,46.4,82,30.22,10.0,NE,11.5,-,N/A,,Overcast,50,2013-09-15 16:37:00
11:48 AM,53.6,46.4,77,30.22,10.0,NNE,12.7,16.1,N/A,,Overcast,20,2013-09-15 16:48:00
11:53 AM,53.1,46.9,80,30.24,10.0,NNE,8.1,16.1,N/A,,Overcast,30,2013-09-15 16:53:00
12:53 PM,55.0,43.0,64,30.25,10.0,North,11.5,16.1,N/A,,Overcast,10,2013-09-15 17:53:00
1:53 PM,57.9,44.1,60,30.26,10.0,NNE,9.2,-,N/A,,Scattered Clouds,30,2013-09-15 18:53:00
2:04 PM,57.2,44.6,63,30.25,10.0,NNE,10.4,20.7,N/A,,Mostly Cloudy,20,2013-09-15 19:04:00
2:15 PM,57.2,44.6,63,30.25,10.0,NNE,9.2,16.1,N/A,,Scattered Clouds,30,2013-09-15 19:15:00
2:53 PM,57.9,42.1,56,30.27,10.0,North,9.2,-,N/A,,Partly Cloudy,360,2013-09-15 19:53:00
3:53 PM,61.0,41.0,48,30.27,10.0,North,8.1,-,N/A,,Clear,10,2013-09-15 20:53:00
4:53 PM,61.0,43.0,52,30.28,10.0,ENE,5.8,-,N/A,,Clear,70,2013-09-15 21:53:00
5:53 PM,59.0,42.1,53,30.28,10.0,ENE,5.8,-,N/A,,Clear,60,2013-09-15 22:53:00
6:53 PM,57.9,42.1,56,30.30,10.0,ENE,5.8,-,N/A,,Clear,70,2013-09-15 23:53:00
7:53 PM,54.0,44.1,69,30.31,10.0,NE,3.5,-,N/A,,Clear,50,2013-09-16 00:53:00
8:53 PM,52.0,44.1,74,30.32,10.0,Calm,Calm,-,N/A,,Clear,0,2013-09-16 01:53:00
9:53 PM,43.0,41.0,93,30.35,10.0,WSW,4.6,-,N/A,,Clear,240,2013-09-16 02:53:00
10:53 PM,41.0,41.0,100,30.36,10.0,NW,4.6,-,N/A,,Clear,320,2013-09-16 03:53:00
11:53 PM,42.1,39.9,92,30.37,10.0,Calm,Calm,-,N/A,,Clear,0,2013-09-16 04:53:00